Location: Izdebno
(52.6670°N, 16.2170°E)
Time: 09:43:28
(UTC+02:00)

A-11 Canister half - Pass Details

Date: 29 February 2024
Orbit: 1513 x 1686 km, 47.2° (Epoch: 24 April)

Event Time Altitude Azimuth Distance (km) Brightness Sun altitude
Exits shadow 00:14:19 13° 87° (E) 3,666 11.0 -45.2°
Drops below altitude 10° 00:15:21 10° 83° (E) 3,919 11.2 -45.2°
Sets 00:18:56 0° 74° (ENE) 4,889 11.8 -45.1°
